Weather History for Harrisburg, PA

Change the Weather History Date:

Saturday, March 8, 2014

  Actual Average Record
Temperature  
Mean Temperature 40 °F -  
Max Temperature 54 °F 43 °F 84 °F (2000)
Min Temperature 27 °F 27 °F 7 °F (2007)
Degree Days  
Heating Degree Days 24    
Moisture  
Dew Point 29 °F    
Average Humidity 62    
Maximum Humidity 85    
Minimum Humidity 40    
Precipitation  
Precipitation 0.00 in - - ()
Sea Level Pressure  
Sea Level Pressure 29.93 in    
Wind  
Wind Speed 6 mph (West)    
Max Wind Speed 15 mph    
Max Gust Speed 21 mph    
Visibility 9 miles    
Events      
Averages and records for this station are not official NWS values.
T = Trace of Precipitation, MM = Missing Value Source: NWS Daily Summary

Daily Weather History Graph

Daily Weather History Graph

Search for Another Location

Airport:

Trip Planner

Search our weather history database for the weather conditions in past years. The results will help you decide how hot, cold, wet, or windy it might be!

Date:

Astronomy

Mar. 08, 2014 Rise Set
Actual Time 6:30 AM EST 6:06 PM EST
Civil Twilight 6:03 AM EST 6:33 PM EST
Nautical Twilight 5:31 AM EST 7:05 PM EST
Astronomical Twilight 5:00 AM EST 7:37 PM EST
Moon 11:09 AM EST (3/8) 1:03 AM EST (3/8)
Length of Visible Light 12h 30m
Length of Day
11h 36m
First Quarter, 51% of the Moon is Illuminated
Mar 8
First Quarter
Mar 16
Full
Mar 23
Last Quarter
Mar 30
New
Apr 7
First Quarter

Hourly Weather History & Observations

Time (EST) Temp. Windchill Dew Point Humidity Pressure Visibility Wind Dir Wind Speed Gust Speed Precip Events Conditions
12:56 AM 27.0 °F 23.0 °F 23.0 °F 85% 29.96 in 8.0 mi West 3.5 mph - N/A   Clear
1:56 AM 27.0 °F 21.6 °F 23.0 °F 85% 29.96 in 8.0 mi WNW 4.6 mph - N/A   Clear
2:56 AM 28.9 °F 25.2 °F 23.0 °F 78% 29.94 in 8.0 mi WNW 3.5 mph - N/A   Clear
3:56 AM 28.9 °F 23.9 °F 23.0 °F 78% 29.94 in 7.0 mi NW 4.6 mph - N/A   Clear
4:56 AM 28.9 °F 23.9 °F 23.0 °F 78% 29.94 in 7.0 mi NW 4.6 mph - N/A   Clear
5:56 AM 28.9 °F - 23.0 °F 78% 29.94 in 7.0 mi Calm Calm - N/A   Clear
6:56 AM 30.0 °F 26.5 °F 24.1 °F 79% 29.94 in 10.0 mi Variable 3.5 mph - N/A   Clear
7:56 AM 33.1 °F 30.0 °F 26.1 °F 75% 29.95 in 7.0 mi Variable 3.5 mph - N/A   Clear
8:56 AM 37.9 °F 32.1 °F 28.0 °F 68% 29.95 in 10.0 mi West 8.1 mph - N/A   Clear
9:56 AM 43.0 °F 38.2 °F 30.0 °F 60% 29.94 in 10.0 mi West 8.1 mph - N/A   Clear
10:56 AM 48.9 °F - 32.0 °F 52% 29.94 in 10.0 mi WSW 10.4 mph - N/A   Scattered Clouds
11:56 AM 48.9 °F - 32.0 °F 52% 29.94 in 10.0 mi WSW 10.4 mph - N/A   Scattered Clouds
12:56 PM 51.1 °F - 33.1 °F 50% 29.91 in 10.0 mi WSW 10.4 mph - N/A   Overcast
1:56 PM 53.1 °F - 32.0 °F 45% 29.87 in 10.0 mi WSW 10.4 mph - N/A   Partly Cloudy
2:56 PM 53.1 °F - 33.1 °F 47% 29.87 in 10.0 mi WSW 10.4 mph - N/A   Partly Cloudy
3:56 PM 54.0 °F - 32.0 °F 43% 29.87 in 10.0 mi WSW 8.1 mph - N/A   Clear
4:56 PM 54.0 °F - 30.0 °F 40% 29.88 in 10.0 mi West 15.0 mph 20.7 mph N/A   Partly Cloudy
5:56 PM 51.1 °F - 30.9 °F 46% 29.90 in 10.0 mi West 6.9 mph - N/A   Mostly Cloudy
6:56 PM 51.1 °F - 30.9 °F 46% 29.91 in 10.0 mi WNW 3.5 mph - N/A   Partly Cloudy
7:56 PM 48.0 °F - 30.9 °F 52% 29.93 in 10.0 mi WNW 6.9 mph - N/A   Mostly Cloudy
8:56 PM 46.9 °F - 33.1 °F 59% 29.95 in 8.0 mi NNW 10.4 mph - N/A   Overcast
9:56 PM 46.0 °F 42.5 °F 33.1 °F 61% 29.95 in 7.0 mi NW 6.9 mph - N/A   Overcast
10:56 PM 45.0 °F 38.9 °F 33.1 °F 63% 29.95 in 8.0 mi NW 12.7 mph - N/A   Overcast
11:56 PM 43.0 °F 37.7 °F 32.0 °F 65% 29.95 in 8.0 mi NW 9.2 mph - N/A   Overcast